• In Belgien
  • Länderverzeichnis
  • Für 7 Tage
  • Wassertemperatur
  • Satellitenkarten
  • Wetterkarte
  • Widgets
  • user-avatar
    Anmelden

    Stündliche Wetter Albany

    Heute, 23 Juli, Sonntag

    Zeit Temperatur Niederschläge Wind Luftdruck Luftfeuchtigkeit
    00:00 +9°C° 0 mm 5 m/S 758 mmHg 87%
    01:00 +9°C° 0 mm 5 m/S 757 mmHg 87%
    02:00 +9°C° 0 mm 6 m/S 757 mmHg 87%
    03:00 +9°C° 0 mm 6 m/S 757 mmHg 86%
    04:00 +9°C° 0 mm 6 m/S 756 mmHg 85%
    05:00 +10°C° 0 mm 7 m/S 756 mmHg 84%
    06:00 +10°C° 0 mm 7 m/S 756 mmHg 84%
    07:00 +10°C° 0 mm 8 m/S 756 mmHg 83%
    08:00 +11°C° 0 mm 8 m/S 756 mmHg 82%
    09:00 +12°C° 0,5 mm 8 m/S 755 mmHg 81%
    10:00 +12°C° 0,5 mm 9 m/S 755 mmHg 80%
    11:00 +13°C° 0,5 mm 9 m/S 755 mmHg 79%
    12:00 +13°C° 0,6 mm 9 m/S 755 mmHg 77%
    13:00 +13°C° 0,6 mm 8 m/S 754 mmHg 75%
    14:00 +15°C° 0,6 mm 8 m/S 754 mmHg 74%
    15:00 +13°C° 0,1 mm 8 m/S 754 mmHg 71%
    16:00 +14°C° 0,1 mm 7 m/S 754 mmHg 68%
    17:00 +14°C° 0,1 mm 7 m/S 755 mmHg 65%
    18:00 +12°C° 0,1 mm 7 m/S 755 mmHg 69%
    19:00 +11°C° 0,1 mm 7 m/S 755 mmHg 72%
    20:00 +10°C° 0,1 mm 7 m/S 756 mmHg 75%
    21:00 +10°C° 0,1 mm 7 m/S 756 mmHg 77%
    22:00 +10°C° 0,1 mm 7 m/S 756 mmHg 79%
    23:00 +10°C° 0,1 mm 7 m/S 757 mmHg 82%

    Morgen, 24 Juli, Montag

    Zeit Temperatur Niederschläge Wind Luftdruck Luftfeuchtigkeit
    00:00 +9°C° 0,1 mm 7 m/S 757 mmHg 83%
    01:00 +9°C° 0,1 mm 6 m/S 757 mmHg 84%
    02:00 +9°C° 0,1 mm 6 m/S 757 mmHg 85%
    03:00 +9°C° 0,1 mm 6 m/S 757 mmHg 86%
    04:00 +9°C° 0,1 mm 6 m/S 757 mmHg 87%
    05:00 +9°C° 0,1 mm 6 m/S 757 mmHg 88%
    06:00 +9°C° 0,1 mm 6 m/S 757 mmHg 87%
    07:00 +9°C° 0,1 mm 6 m/S 758 mmHg 87%
    08:00 +9°C° 0,1 mm 6 m/S 758 mmHg 87%
    09:00 +10°C° 0,1 mm 6 m/S 758 mmHg 79%
    10:00 +13°C° 0,1 mm 6 m/S 758 mmHg 70%
    11:00 +15°C° 0,1 mm 7 m/S 759 mmHg 62%
    12:00 +15°C° 0,1 mm 7 m/S 758 mmHg 61%
    13:00 +15°C° 0,1 mm 7 m/S 758 mmHg 60%
    14:00 +15°C° 0,1 mm 6 m/S 757 mmHg 59%
    15:00 +15°C° 0,1 mm 6 m/S 757 mmHg 64%
    16:00 +14°C° 0,1 mm 5 m/S 758 mmHg 69%
    17:00 +13°C° 0,1 mm 4 m/S 758 mmHg 75%
    18:00 +12°C° 0,2 mm 4 m/S 758 mmHg 79%
    19:00 +11°C° 0,2 mm 4 m/S 759 mmHg 83%
    20:00 +10°C° 0,2 mm 3 m/S 759 mmHg 86%
    21:00 +10°C° 0,3 mm 4 m/S 759 mmHg 88%
    22:00 +10°C° 0,3 mm 4 m/S 759 mmHg 89%
    23:00 +9°C° 0,3 mm 5 m/S 759 mmHg 90%

    übermorgen, 25 Juli, Dienstag

    Zeit Temperatur Niederschläge Wind Luftdruck Luftfeuchtigkeit
    00:00 +8°C° 0,1 mm 5 m/S 759 mmHg 90%
    01:00 +8°C° 0,1 mm 5 m/S 759 mmHg 90%
    02:00 +8°C° 0,1 mm 5 m/S 759 mmHg 90%
    03:00 +8°C° 0,1 mm 5 m/S 759 mmHg 90%
    04:00 +8°C° 0,1 mm 5 m/S 759 mmHg 91%
    05:00 +8°C° 0,1 mm 4 m/S 759 mmHg 92%
    06:00 +8°C° 0,1 mm 4 m/S 760 mmHg 91%
    07:00 +8°C° 0,1 mm 5 m/S 760 mmHg 91%
    08:00 +8°C° 0,1 mm 5 m/S 760 mmHg 90%
    09:00 +10°C° 0 mm 5 m/S 760 mmHg 81%
    10:00 +13°C° 0 mm 5 m/S 760 mmHg 72%
    11:00 +15°C° 0 mm 6 m/S 760 mmHg 63%
    12:00 +16°C° 0 mm 6 m/S 760 mmHg 61%
    13:00 +17°C° 0 mm 5 m/S 759 mmHg 59%
    14:00 +17°C° 0 mm 5 m/S 759 mmHg 57%
    15:00 +17°C° 0 mm 5 m/S 758 mmHg 60%
    16:00 +16°C° 0 mm 5 m/S 758 mmHg 63%
    17:00 +15°C° 0 mm 5 m/S 758 mmHg 66%
    18:00 +15°C° 0 mm 5 m/S 758 mmHg 68%
    19:00 +14°C° 0 mm 6 m/S 758 mmHg 70%
    20:00 +13°C° 0 mm 6 m/S 758 mmHg 73%
    21:00 +14°C° 0 mm 6 m/S 758 mmHg 73%
    22:00 +14°C° 0 mm 7 m/S 757 mmHg 73%
    23:00 +14°C° 0 mm 7 m/S 757 mmHg 73%

    26 Juli, Mittwoch

    Zeit Temperatur Niederschläge Wind Luftdruck Luftfeuchtigkeit
    00:00 +13°C° 0 mm 8 m/S 756 mmHg 74%
    01:00 +13°C° 0 mm 8 m/S 756 mmHg 76%
    02:00 +13°C° 0 mm 9 m/S 755 mmHg 77%
    03:00 +13°C° 0,1 mm 9 m/S 755 mmHg 79%
    04:00 +13°C° 0,1 mm 9 m/S 754 mmHg 80%
    05:00 +13°C° 0,1 mm 9 m/S 754 mmHg 81%
    06:00 +13°C° 0,2 mm 8 m/S 754 mmHg 83%
    07:00 +13°C° 0,2 mm 8 m/S 754 mmHg 86%
    08:00 +13°C° 0,2 mm 8 m/S 755 mmHg 88%
    09:00 +15°C° 0,3 mm 8 m/S 755 mmHg 82%
    10:00 +16°C° 0,3 mm 9 m/S 755 mmHg 76%
    11:00 +17°C° 0,3 mm 10 m/S 755 mmHg 70%
    12:00 +17°C° 0,1 mm 10 m/S 755 mmHg 66%
    13:00 +17°C° 0,1 mm 10 m/S 755 mmHg 62%
    14:00 +17°C° 0,1 mm 10 m/S 755 mmHg 58%
    15:00 +16°C° 0,1 mm 10 m/S 755 mmHg 59%
    16:00 +15°C° 0,1 mm 9 m/S 756 mmHg 59%
    17:00 +13°C° 0,1 mm 9 m/S 756 mmHg 59%
    18:00 +13°C° 0,1 mm 9 m/S 757 mmHg 62%
    19:00 +12°C° 0,1 mm 9 m/S 758 mmHg 64%
    20:00 +11°C° 0,1 mm 9 m/S 758 mmHg 66%
    21:00 +11°C° 0 mm 8 m/S 759 mmHg 68%
    22:00 +10°C° 0 mm 7 m/S 759 mmHg 71%
    23:00 +10°C° 0 mm 7 m/S 759 mmHg 73%

    27 Juli, Donnerstag

    Zeit Temperatur Niederschläge Wind Luftdruck Luftfeuchtigkeit
    00:00 +9°C° 0 mm 6 m/S 759 mmHg 75%
    01:00 +9°C° 0 mm 5 m/S 759 mmHg 76%
    02:00 +9°C° 0 mm 5 m/S 759 mmHg 78%
    03:00 +10°C° 0 mm 4 m/S 759 mmHg 80%
    04:00 +8°C° 0 mm 4 m/S 759 mmHg 81%
    05:00 +8°C° 0 mm 4 m/S 759 mmHg 83%
    06:00 +8°C° 0 mm 4 m/S 759 mmHg 83%
    07:00 +8°C° 0 mm 4 m/S 759 mmHg 83%
    08:00 +7°C° 0 mm 5 m/S 759 mmHg 84%
    09:00 +9°C° 0 mm 5 m/S 759 mmHg 76%
    10:00 +11°C° 0 mm 6 m/S 758 mmHg 69%
    11:00 +14°C° 0 mm 7 m/S 758 mmHg 62%
    12:00 +15°C° 0 mm 7 m/S 757 mmHg 62%
    13:00 +15°C° 0 mm 8 m/S 756 mmHg 62%
    14:00 +16°C° 0 mm 8 m/S 755 mmHg 62%
    15:00 +16°C° 0 mm 8 m/S 754 mmHg 64%
    16:00 +16°C° 0 mm 8 m/S 754 mmHg 66%
    17:00 +16°C° 0 mm 8 m/S 753 mmHg 68%
    18:00 +16°C° 0 mm 9 m/S 753 mmHg 69%
    19:00 +16°C° 0 mm 10 m/S 752 mmHg 71%
    20:00 +16°C° 0 mm 10 m/S 752 mmHg 72%
    21:00 +16°C° 1,7 mm 11 m/S 751 mmHg 76%
    22:00 +16°C° 1,7 mm 11 m/S 751 mmHg 81%
    23:00 +16°C° 1,7 mm 11 m/S 750 mmHg 85%

    28 Juli, Freitag

    Zeit Temperatur Niederschläge Wind Luftdruck Luftfeuchtigkeit
    00:00 +16°C° 1,9 mm 10 m/S 750 mmHg 87%
    01:00 +14°C° 1,9 mm 10 m/S 750 mmHg 88%
    02:00 +15°C° 1,9 mm 9 m/S 750 mmHg 90%
    03:00 +13°C° 0,2 mm 9 m/S 750 mmHg 88%
    04:00 +13°C° 0,2 mm 9 m/S 750 mmHg 87%
    05:00 +12°C° 0,2 mm 10 m/S 750 mmHg 85%
    06:00 +12°C° 0,1 mm 10 m/S 751 mmHg 84%
    07:00 +12°C° 0,1 mm 10 m/S 751 mmHg 84%
    08:00 +12°C° 0,1 mm 9 m/S 751 mmHg 83%
    09:00 +12°C° 0,2 mm 10 m/S 751 mmHg 81%
    10:00 +12°C° 0,2 mm 10 m/S 751 mmHg 79%
    11:00 +12°C° 0,2 mm 10 m/S 751 mmHg 78%
    12:00 +12°C° 0,2 mm 10 m/S 751 mmHg 78%
    13:00 +11°C° 0,2 mm 9 m/S 751 mmHg 78%
    14:00 +11°C° 0,2 mm 9 m/S 751 mmHg 78%
    15:00 +11°C° 0,3 mm 9 m/S 751 mmHg 78%
    16:00 +11°C° 0,3 mm 9 m/S 751 mmHg 78%
    17:00 +10°C° 0,3 mm 9 m/S 751 mmHg 78%
    18:00 +9°C° 0,8 mm 8 m/S 752 mmHg 80%
    19:00 +9°C° 0,8 mm 8 m/S 753 mmHg 82%
    20:00 +8°C° 0,8 mm 7 m/S 753 mmHg 84%
    21:00 +8°C° 0,5 mm 7 m/S 753 mmHg 84%
    22:00 +7°C° 0,5 mm 8 m/S 754 mmHg 84%
    23:00 +6°C° 0,5 mm 8 m/S 754 mmHg 84%
    Mehr zeigen